Location: Gull Harbor
(47.1000°N, 122.9000°W)
Time: 14:08:52
(UTC-07:00)

BlueWalker 3 - Pass Details

Date: 04 February 2023
Orbit: 497 x 514 km, 53.2° (Epoch: 01 April)

Event Time Altitude Azimuth Distance (km) Brightness Sun altitude
Rises 19:35:50 0° 296° (WNW) 2,610 6.6 -23.6°
Reaches altitude 10° 19:38:06 10° 303° (WNW) 1,728 5.4 -23.9°
Enters shadow 19:40:54 37° 338° (NNW) 813 3.1 -24.4°
